Weather History for O'Neill, NE

Change the Weather History Date:

Thursday, April 18, 2013

  Actual Average Record
Temperature  
Mean Temperature 28 °F -  
Max Temperature 31 °F 61 °F 90 °F (1985)
Min Temperature 26 °F 36 °F 18 °F (1953)
Degree Days  
Heating Degree Days 36    
Moisture  
Dew Point 25 °F    
Average Humidity 88    
Maximum Humidity 93    
Minimum Humidity 75    
Precipitation  
Precipitation 0.00 in - - ()
Sea Level Pressure  
Sea Level Pressure 29.94 in    
Wind  
Wind Speed 14 mph (NW)    
Max Wind Speed 20 mph    
Max Gust Speed 26 mph    
Visibility 4 miles    
Events Snow    
Averages and records for this station are not official NWS values.
T = Trace of Precipitation, MM = Missing Value Source: NWS Daily Summary

Daily Weather History Graph

Daily Weather History Graph

Search for Another Location

Airport:

Trip Planner

Search our weather history database for the weather conditions in past years. The results will help you decide how hot, cold, wet, or windy it might be!

Date:

Astronomy

Apr. 18, 2013 Rise Set
Actual Time 6:48 AM CDT 8:20 PM CDT
Civil Twilight 6:18 AM CDT 8:49 PM CDT
Nautical Twilight 5:43 AM CDT 9:25 PM CDT
Astronomical Twilight 5:05 AM CDT 10:03 PM CDT
Moon 1:00 PM CDT (4/18) 2:37 AM CDT (4/18)
Length of Visible Light 14h 30m
Length of Day
13h 31m
First Quarter, 52% of the Moon is Illuminated
Apr 18
First Quarter
Apr 25
Full
May 2
Last Quarter
May 9
New
May 17
First Quarter

Hourly Weather History & Observations

Time (CDT) Temp. Windchill Dew Point Humidity Pressure Visibility Wind Dir Wind Speed Gust Speed Precip Events Conditions
12:15 AM 29.1 °F 19.4 °F 27.0 °F 92% 30.00 in 10.0 mi NNW 11.5 mph - N/A   Overcast
12:35 AM 29.1 °F 18.9 °F 27.0 °F 92% 30.00 in 10.0 mi North 12.7 mph - N/A   Overcast
12:55 AM 28.9 °F 18.2 °F 26.8 °F 92% 29.97 in 10.0 mi NNW 13.8 mph 17.3 mph N/A   Overcast
1:15 AM 28.9 °F 17.7 °F 26.6 °F 91% 29.98 in 10.0 mi NNW 15.0 mph - N/A   Overcast
1:35 AM 28.8 °F 19.0 °F 26.4 °F 91% 29.99 in 10.0 mi NNW 11.5 mph - N/A   Overcast
2:15 AM 28.4 °F 17.0 °F 25.9 °F 90% 29.94 in 10.0 mi NNW 15.0 mph 19.6 mph N/A   Overcast
2:35 AM 28.4 °F 17.5 °F 26.1 °F 91% 29.93 in 10.0 mi NNW 13.8 mph - N/A   Overcast
2:55 AM 28.4 °F 17.5 °F 25.7 °F 90% 29.95 in 10.0 mi NNW 13.8 mph - N/A   Unknown
3:15 AM 28.4 °F 19.7 °F 25.7 °F 90% 29.99 in 5.0 mi NNW 9.2 mph - N/A Snow Light Snow
3:35 AM 28.2 °F 17.2 °F 25.7 °F 90% 29.94 in 3.0 mi NNW 13.8 mph 19.6 mph N/A Snow Light Snow
3:55 AM 27.9 °F 16.8 °F 25.7 °F 92% 29.94 in 1.5 mi NNW 13.8 mph - N/A Snow Light Snow
4:15 AM 27.9 °F 16.8 °F 25.7 °F 92% 29.95 in 1.2 mi NNW 13.8 mph - N/A Snow Light Snow
4:35 AM 27.5 °F 17.4 °F 25.7 °F 93% 29.93 in 1.5 mi NNW 11.5 mph - N/A Snow Light Snow
4:55 AM 27.5 °F 16.3 °F 25.5 °F 92% 29.93 in 1.8 mi NNW 13.8 mph - N/A Snow Light Snow
5:15 AM 27.3 °F 14.8 °F 25.2 °F 92% 29.93 in 1.5 mi NNW 17.3 mph - N/A Snow Light Snow
5:35 AM 27.1 °F 14.9 °F 25.2 °F 92% 29.92 in 1.2 mi NNW 16.1 mph - N/A Snow Light Snow
5:55 AM 27.1 °F 15.9 °F 24.8 °F 91% 29.92 in 1.5 mi NNW 13.8 mph - N/A Snow Light Snow
6:15 AM 27.0 °F 15.6 °F 24.8 °F 92% 29.91 in 1.8 mi NNW 13.8 mph - N/A Snow Light Snow
6:35 AM 26.8 °F 15.4 °F 24.8 °F 92% 29.91 in 1.2 mi NNW 13.8 mph - N/A Snow Snow
6:55 AM 26.6 °F 14.3 °F 24.6 °F 92% 29.91 in 0.8 mi NNW 16.1 mph - N/A Snow Snow
7:15 AM 26.4 °F 14.5 °F 24.3 °F 92% 29.92 in 0.8 mi NNW 15.0 mph - N/A Snow Light Snow
7:35 AM 26.4 °F 15.5 °F 24.3 °F 92% 29.93 in 0.8 mi NNW 12.7 mph - N/A Snow Light Snow
7:55 AM 26.6 °F 15.7 °F 24.6 °F 92% 29.93 in 0.8 mi NW 12.7 mph - N/A Snow Light Snow
8:15 AM 27.0 °F 16.7 °F 24.8 °F 92% 29.93 in 0.8 mi NW 11.5 mph - N/A Snow Light Snow
8:35 AM 27.0 °F 16.1 °F 25.0 °F 92% 29.93 in 0.5 mi NW 12.7 mph - N/A Snow Light Snow
8:55 AM 27.0 °F 16.1 °F 24.8 °F 92% 29.93 in 0.8 mi NW 12.7 mph - N/A Snow Light Snow
9:15 AM 27.0 °F 15.2 °F 24.6 °F 91% 29.94 in 0.8 mi NW 15.0 mph - N/A Snow Light Snow
9:35 AM 27.1 °F 16.4 °F 24.6 °F 90% 29.93 in 1.0 mi NW 12.7 mph - N/A Snow Light Snow
9:55 AM 27.0 °F 14.7 °F 24.4 °F 90% 29.93 in 1.0 mi NW 16.1 mph 19.6 mph N/A Snow Light Snow
10:15 AM 27.1 °F 15.4 °F 24.3 °F 89% 29.94 in 0.8 mi NNW 15.0 mph - N/A Snow Light Snow
10:42 AM - - - N/A% 29.95 in - NNW 12.7 mph - N/A   Unknown
10:55 AM 27.5 °F 15.9 °F 24.6 °F 89% 29.95 in 1.0 mi NNW 15.0 mph - N/A Snow Light Snow
11:15 AM 27.9 °F 16.8 °F 24.8 °F 88% 29.95 in 1.0 mi NNW 13.8 mph 20.7 mph N/A Snow Light Snow
11:35 AM 28.4 °F 16.6 °F 25.2 °F 88% 29.94 in 1.0 mi NW 16.1 mph 19.6 mph N/A Snow Light Snow
11:55 AM 28.4 °F 16.6 °F 25.2 °F 88% 29.93 in 1.0 mi NW 16.1 mph - N/A Snow Light Snow
12:15 PM 28.4 °F 16.6 °F 25.5 °F 89% 29.93 in 1.0 mi NW 16.1 mph - N/A Snow Light Snow
12:35 PM 28.0 °F 15.7 °F 24.8 °F 88% 29.93 in 1.0 mi NW 17.3 mph - N/A   Overcast
12:55 PM 28.0 °F 16.5 °F 24.8 °F 88% 29.93 in 1.0 mi NW 15.0 mph 20.7 mph N/A   Overcast
1:15 PM 28.4 °F 17.0 °F 25.2 °F 88% 29.93 in 1.0 mi NW 15.0 mph - N/A   Unknown
1:35 PM 28.4 °F 16.6 °F 25.5 °F 89% 29.93 in 1.0 mi NW 16.1 mph - N/A Snow Light Snow
1:55 PM 28.8 °F 16.2 °F 25.9 °F 89% 29.93 in 0.8 mi NW 18.4 mph 21.9 mph N/A Snow Light Snow
2:15 PM 29.3 °F 17.3 °F 26.2 °F 88% 29.92 in 0.8 mi NW 17.3 mph 21.9 mph N/A Snow Light Snow
2:35 PM 29.3 °F 17.0 °F 26.2 °F 88% 29.93 in 1.0 mi NW 18.4 mph - N/A Snow Light Snow
2:55 PM 29.8 °F 18.4 °F 27.0 °F 89% 29.93 in 1.0 mi NW 16.1 mph - N/A   Overcast
3:35 PM 30.0 °F 17.5 °F 27.1 °F 89% 29.93 in 1.0 mi NW 19.6 mph 23.0 mph N/A   Overcast
3:55 PM 29.8 °F 17.7 °F 26.8 °F 88% 29.94 in 1.0 mi NW 18.4 mph - N/A   Overcast
4:15 PM 29.8 °F 18.0 °F 26.8 °F 88% 29.94 in 1.0 mi NW 17.3 mph - N/A   Overcast
4:35 PM 29.3 °F 17.3 °F 26.4 °F 89% 29.94 in 1.0 mi NNW 17.3 mph 21.9 mph N/A   Overcast
4:55 PM 29.5 °F 17.6 °F 26.6 °F 89% 29.95 in 1.0 mi NW 17.3 mph 23.0 mph N/A   Overcast
5:15 PM 29.5 °F 18.4 °F 26.4 °F 88% 29.95 in 1.8 mi NW 15.0 mph 20.7 mph N/A   Overcast
5:35 PM 29.8 °F 18.9 °F 27.1 °F 90% 29.95 in 1.5 mi NW 15.0 mph - N/A   Overcast
5:55 PM 30.0 °F 19.5 °F 27.3 °F 90% 29.95 in 1.5 mi NW 13.8 mph - N/A Snow Light Snow
6:15 PM 30.2 °F 19.3 °F 26.1 °F 85% 29.95 in 3.0 mi NW 15.0 mph - N/A   Overcast
6:35 PM 30.6 °F 20.2 °F 25.2 °F 80% 29.95 in 10.0 mi NW 13.8 mph - N/A   Overcast
6:55 PM 30.9 °F 19.4 °F 24.6 °F 77% 29.95 in 4.0 mi NNW 17.3 mph 26.5 mph N/A   Haze
7:15 PM 31.1 °F 20.1 °F 23.9 °F 75% 29.95 in 10.0 mi NNW 16.1 mph 21.9 mph N/A   Overcast
7:35 PM 30.7 °F 20.0 °F 24.6 °F 78% 29.95 in 10.0 mi NNW 15.0 mph - N/A   Overcast
7:55 PM 30.7 °F 19.6 °F 25.3 °F 80% 29.96 in 10.0 mi NNW 16.1 mph - N/A   Overcast
8:15 PM 30.9 °F 20.2 °F 25.3 °F 80% 29.96 in 10.0 mi NNW 15.0 mph - N/A   Overcast
8:35 PM 30.9 °F 19.8 °F 25.5 °F 80% 29.97 in 10.0 mi NNW 16.1 mph - N/A   Overcast
10:15 PM 30.2 °F 21.9 °F 24.8 °F 80% 29.98 in 10.0 mi NW 9.2 mph - N/A   Overcast
10:35 PM 28.8 °F 20.9 °F 23.4 °F 80% 29.97 in 10.0 mi NW 8.1 mph - N/A   Scattered Clouds
10:55 PM 28.4 °F 18.5 °F 23.0 °F 80% 29.97 in 10.0 mi NW 11.5 mph - N/A   Clear
11:15 PM 28.4 °F 18.0 °F 22.8 °F 80% 29.96 in 10.0 mi NW 12.7 mph - N/A   Clear
11:35 PM 27.9 °F 17.8 °F 22.3 °F 80% 29.96 in 10.0 mi NW 11.5 mph - N/A   Clear
11:55 PM 27.1 °F 16.9 °F 21.6 °F 80% 29.95 in 10.0 mi NW 11.5 mph - N/A   Clear